Location: Namasale
(1.5000°N, 32.6167°E)
Time: 22:12:40
(UTC+00:00)

Vanguard 3 - Pass Details

Date: 27 April 2021
Orbit: 507 x 3262 km, 33.4° (Epoch: 16 May)

Event Time Altitude Azimuth Distance (km) Brightness Sun altitude
Rises 17:41:32 0° 242° (WSW) 7,204 12.6 -27.2°
Reaches altitude 10° 17:46:43 10° 245° (WSW) 6,061 12.1 -28.5°
Maximum altitude 18:04:36 61° 321° (NW) 2,608 9.7 -32.7°
Enters shadow 18:13:35 19° 36° (NE) 3,418 10.1 -34.9°
